Regional Weather Roundup
Issued by NWS Charleston, SC

Current Version | Previous Version | Text Only | Print | Product List | Glossary On
Versions: 1 2 3 4 5 6 7 8 9 10 11 12 13 14 15 16 17 18 19 20 21 22 23 24 25 26 27 28 29 30 31 32 33 34 35 36 37 38 39 40 41 42 43 44 45 46 47 48 49 50
000 ASUS42 KCHS 220625 RWRCHS REGIONAL WEATHER ROUNDUP NATIONAL WEATHER SERVICE CHARLESTON SC 100 AM EST WED FEB 22 2017 NOTE: "FAIR" INDICATES FEW OR NO CLOUDS BELOW 12,000 FEET WITH NO SIGNIFICANT WEATHER AND/OR OBSTRUCTIONS TO VISIBILITY. NOT ALL STATIONS ARE QUALITY CONTROLLED. USE DATA WITH CAUTION... ESPECIALLY DEWPOINT OBSERVATIONS. SCZ027-030-031-034>040-042>050-220700- ...SOUTHEAST SOUTH CAROLINA... CITY SKY/WX TMP DP RH WIND PRES REMARKS N CHARLESTON PTCLDY 59 56 89 E7 30.01F 6HR MIN TEMP: 59; 6HR MAX TEMP: 63; WATERFRONT PRK N/A 62 59 90 NE7 30.01F MOUNT PLEASANT LGT RAIN 57 55 94 CALM 30.01F JOHNS ISLAND FAIR 61 59 94 E3 30.00F PINOPOLIS N/A 59 57 94 E5 29.93F MONCKS CORNER FAIR 57 54 88 E5 30.00F SUMMERVILLE FAIR 55 55 100 CALM 30.01F BEAUFORT MCAS CLOUDY 64 60 87 E6 29.98F 6HR MIN TEMP: 64; 6HR MAX TEMP: 65; BEAUFORT ARPT FAIR 63 59 88 E8 29.97F HILTON HEAD IS CLOUDY 63 61 94 VRB3 29.97F WALTERBORO PTCLDY 57 55 94 NE5 30.00F ALLENDALE CLOUDY 63 59 88 VRB7 29.97F ...SOUTHERN MIDLANDS AND PEE DEE... CITY SKY/WX TMP DP RH WIND PRES REMARKS GEORGETOWN FAIR 52 50 93 CALM 30.04F FOG KINGSTREE FAIR 55 52 88 E7 30.02F ORANGEBURG PTCLDY 57 55 93 E3 30.01F 6HR MIN TEMP: 57; 6HR MAX TEMP: 65; BARNWELL CLOUDY 63 61 94 E7 29.98F AIKEN RAIN 59 55 88 E6 30.02F MANNING FAIR 55 48 76 MISG 30.01F COLUMBIA MOCLDY 60 54 80 E8 30.00F 6HR MIN TEMP: 60; 6HR MAX TEMP: 67; 6HR PCP: TRACE; SUMTER CLOUDY 53 50 88 NE5 29.99F 6HR MIN TEMP: 53; 6HR MAX TEMP: 65; FLORENCE PTCLDY 55 52 89 E7 30.04F 6HR MIN TEMP: 55; 6HR MAX TEMP: 64; MYRTLE BEACH NOT AVBL N MYRTLE BEACH CLOUDY 61 54 77 E8 30.05F 6HR MIN TEMP: 57; 6HR MAX TEMP: 62; $$ GAZ063-065-086>088-099>101-113>116-118-119-134>141-150-220700- ...SOUTHEAST GEORGIA... CITY SKY/WX TMP DP RH WIND PRES REMARKS SAVANNAH ARPT CLOUDY 67 58 72 SE12 29.96F 6HR MIN TEMP: 65; 6HR MAX TEMP: 69; 6HR PCP: TRACE; HUNTER AAF CLOUDY 66 66 100 SE6 29.93F 6HR MIN TEMP: 66; 6HR MAX TEMP: 68; 6HR PCP: 0.02; FORT STEWART CLOUDY 63 61 93 CALM 29.93F 6HR MIN TEMP: 63; 6HR MAX TEMP: 68; 6HR PCP: 0.24; STATESBORO CLOUDY 64 64 100 CALM 29.96S SYLVANIA CLOUDY N/A N/A N/A SE3 29.97S CLAXTON FAIR N/A N/A N/A NE3 29.95S ...CSRA...CENTRAL AND FAR SOUTHEAST GEORGIA... CITY SKY/WX TMP DP RH WIND PRES REMARKS THOMSON CLOUDY 63 62 99 E5 30.01S AUGUSTA-BUSH LGT RAIN 63 61 93 E3 29.97S FOG 6HR MIN TEMP: 63; 6HR MAX TEMP: 69; 6HR PCP: 0.02; AUGUSTA-DANIEL RAIN 62 58 86 E5 29.98S FOG SWAINSBORO CLOUDY 64 63 94 E8 29.95F VIDALIA CLOUDY 64 64 100 SE5 29.94S EASTMAN FAIR 64 60 87 SE3 29.94F HAZLEHURST FAIR 65 64 97 SE5 29.91F ALMA CLOUDY 65 62 90 SE7 29.91F 6HR MIN TEMP: 64; 6HR MAX TEMP: 68; WAYCROSS CLOUDY 68 68 99 SE6 29.91F JESUP FAIR 64 61 88 SE3 29.93F BAXLEY FAIR 64 64 100 SE3 29.92F BRUNSWICK CLOUDY 68 63 83 SE5 29.94F SAINT SIMONS MOCLDY 67 61 81 SE9 29.93F 6HR MIN TEMP: 65; 6HR MAX TEMP: 67; $$ SCZ027-028-034-036>038-045-046-048>050-GAZ119-141-220700- ...LAKE AND SUPPLEMENTAL COASTAL OBSERVATIONS... STATION/POSITION TIME TEMP WIND PRES WAVE SWELL AIR SEA DIR/SP/G HT/PER HT/PER/DIR (UTC) (F) (DEG/KT/KT) (MB) (FT/S) (FT/S/D) WINYAH BAY 0545 58 40/ 5 1017.0S LAKE MURRAY 0550 60 80/ 2/ 4 1015.9F ACE BASIN NERRS 0530 62 50/ 3 1015.0F FORT PULASKI 0600 63 61 100/ 10/ 11 1014.5 SAPELO ISLAND 0600 64 130/ 6 1014.0 $$ ANZ835-935-AMZ111-154-330-350-352-354-370-450-454-472-220700- ...C-MAN AND BUOY OBSERVATIONS... STATION/POSITION TIME TEMP WIND PRES WAVE SWELL AIR SEA DIR/SP/G HT/PER HT/PER/DIR (UTC) (F) (DEG/KT/KT) (MB) (FT/S) (FT/S/D) BUOY 41004 0550 69 69 120/ 14/ 17 1015.6F 4/ 5 2/ 70/ 9 BUOY 41008 0550 65 62 140/ 8/ 8 1013.7F 4/ 6 3/100/ 6 FOLLY BEACH CMAN 0600 61 50/ 6/ 7 1016.5F CAPERS NEARSHORE NOT AVBL FRIPP NEARSHORE 0608 63 60 110/ 10/ 12 1014.6F STATION/POSITION TIME TEMP WIND PRES WAVE SWELL AIR SEA DIR/SP/G HT/PER HT/PER/DIR (UTC) (F) (DEG/KT/KT) (MB) (FT/S) (FT/S/D) 5E ST. MARYS GA 0600 64 N/A 4/ 6 FRYING PAN BUOY 0610 68 69 120/ 14/ 17 1017.3 BUOY 41025 0550 63 74 120/ 8/ 12 1019.7F 4/10 3/ 30/10 CAPE LOOKOUT NC 0600 60 110/ 8/ 8 1018.5F BUOY 41002 0550 63 71 90/ 16/ 19 1018.3F 5/ 8 3/ 40/ 8 BUOY 41010 NOT AVBL ST AUGUSTINE FL 0600 68 68 130/ 13/ 14 1013.5F $$

USA.gov is the U.S. government's official web portal to all federal, state and local government web resources and services.